Weather History for Homestead AFB, FL

Change the Weather History Date:

Saturday, January 19, 2013

  Actual Average Record
Temperature  
Mean Temperature 68 °F -  
Max Temperature 75 °F 76 °F 88 °F (1949)
Min Temperature 60 °F 55 °F 31 °F (1977)
Cooling Degree Days 2    
Growing Degree Days 18 (Base 50)    
Moisture  
Dew Point 62 °F    
Average Humidity 91    
Maximum Humidity 100    
Minimum Humidity 72    
Precipitation  
Precipitation 0.06 in - - ()
Sea Level Pressure  
Sea Level Pressure 30.17 in    
Wind  
Wind Speed 5 mph (NW)    
Max Wind Speed 8 mph    
Max Gust Speed -    
Visibility 7 miles    
Events Rain    
Averages and records for this station are not official NWS values.
T = Trace of Precipitation, MM = Missing Value Source: NWS Daily Summary

Daily Weather History Graph

Daily Weather History Graph

Search for Another Location

Airport:

Trip Planner

Search our weather history database for the weather conditions in past years. The results will help you decide how hot, cold, wet, or windy it might be!

Date:

Astronomy

Jan. 19, 2013 Rise Set
Actual Time 7:08 AM EST 5:56 PM EST
Civil Twilight 6:44 AM EST 6:20 PM EST
Nautical Twilight 6:16 AM EST 6:48 PM EST
Astronomical Twilight 5:48 AM EST 7:16 PM EST
Moon 12:14 PM EST (1/19) 12:50 AM EST (1/19)
Length of Visible Light 11h 36m
Length of Day
10h 47m
First Quarter, 57% of the Moon is Illuminated
Jan 19
First Quarter
Jan 26
Full
Feb 3
Last Quarter
Feb 10
New
Feb 17
First Quarter

Hourly Weather History & Observations

Time (EST) Temp. Dew Point Humidity Pressure Visibility Wind Dir Wind Speed Gust Speed Precip Events Conditions
12:20 AM 60.8 °F 59.0 °F 94% 30.20 in 7.0 mi WNW 5.8 mph - N/A   Light Drizzle
12:22 AM 60.8 °F 59.0 °F 94% 30.19 in 8.0 mi WNW 6.9 mph - N/A   Overcast
12:26 AM 60.8 °F 59.0 °F 94% 30.19 in 8.0 mi WNW 6.9 mph - N/A   Light Drizzle
12:55 AM 61.2 °F 58.8 °F 92% 30.19 in 5.0 mi West 4.6 mph - 0.01 in Rain Light Rain
1:08 AM 60.8 °F 59.0 °F 94% 30.18 in 4.0 mi NW 4.6 mph - N/A Rain Light Rain
1:11 AM 60.8 °F 59.0 °F 94% 30.18 in 4.0 mi WNW 4.6 mph - N/A Rain Light Rain
1:12 AM 60.8 °F 59.0 °F 94% 30.18 in 5.0 mi WNW 4.6 mph - N/A Rain Light Rain
1:20 AM 60.8 °F 59.0 °F 94% 30.18 in 7.0 mi WNW 4.6 mph - N/A Rain Light Rain
1:35 AM 60.8 °F 59.0 °F 94% 30.17 in 8.0 mi WNW 4.6 mph - N/A   Overcast
1:38 AM 60.8 °F 59.0 °F 94% 30.17 in 8.0 mi WNW 5.8 mph - N/A   Light Drizzle
1:43 AM 60.8 °F 59.0 °F 94% 30.17 in 8.0 mi NW 5.8 mph - N/A   Light Drizzle
1:48 AM 60.8 °F 59.0 °F 94% 30.17 in 8.0 mi NW 3.5 mph - N/A   Mostly Cloudy
1:55 AM 61.5 °F 59.2 °F 92% 30.17 in 8.0 mi Calm Calm - 0.02 in   Mostly Cloudy
2:03 AM 60.8 °F 59.0 °F 94% 30.17 in 5.0 mi NNW 3.5 mph - N/A Rain Light Rain
2:35 AM 60.8 °F 59.0 °F 94% 30.16 in 2.5 mi WSW 4.6 mph - N/A Rain Light Rain
2:39 AM 60.8 °F 59.0 °F 94% 30.16 in 3.0 mi WNW 4.6 mph - N/A Rain Light Rain
2:40 AM 60.8 °F 59.0 °F 94% 30.16 in 3.0 mi WNW 4.6 mph - N/A Rain Light Rain
2:46 AM 60.8 °F 59.0 °F 94% 30.16 in 4.0 mi West 5.8 mph - N/A Rain Light Rain
2:55 AM 61.5 °F 59.2 °F 92% 30.16 in 5.0 mi West 6.9 mph - 0.03 in   Light Drizzle
6:55 AM 62.8 °F 61.3 °F 95% 30.18 in 8.0 mi NW 6.9 mph - N/A   Overcast
6:59 AM 62.6 °F 60.8 °F 94% 30.18 in 7.0 mi NW 8.1 mph - N/A   Overcast
7:55 AM 63.0 °F 61.5 °F 95% 30.19 in 6.0 mi NNW 5.8 mph - N/A   Overcast
8:01 AM 62.6 °F 62.6 °F 100% 30.20 in 6.0 mi NW 5.8 mph - N/A   Overcast
8:17 AM 62.6 °F 62.6 °F 100% 30.20 in 9.0 mi NW 6.9 mph - N/A   Overcast
8:44 AM 64.4 °F 62.6 °F 94% 30.21 in 10.0 mi North 6.9 mph - N/A   Overcast
8:55 AM 64.0 °F 62.2 °F 94% 30.21 in 10.0 mi NNW 6.9 mph - N/A   Mostly Cloudy
9:01 AM 64.4 °F 62.6 °F 94% 30.21 in 10.0 mi NNW 6.9 mph - N/A   Scattered Clouds
9:55 AM 67.5 °F 63.1 °F 86% 30.23 in 10.0 mi North 6.9 mph - N/A   Clear
10:55 AM 71.2 °F 64.8 °F 80% 30.22 in 10.0 mi North 5.8 mph - N/A   Partly Cloudy
11:55 AM 73.8 °F 64.2 °F 72% 30.19 in 10.0 mi North 8.1 mph - N/A   Partly Cloudy
12:55 PM 74.5 °F 64.8 °F 72% 30.17 in 10.0 mi North 6.9 mph - N/A   Scattered Clouds
1:55 PM 75.0 °F 66.9 °F 76% 30.13 in 10.0 mi ESE 4.6 mph - N/A   Scattered Clouds
2:55 PM 74.5 °F 66.2 °F 75% 30.12 in 10.0 mi East 8.1 mph - N/A   Partly Cloudy
3:55 PM 72.5 °F 66.2 °F 81% 30.11 in 10.0 mi ENE 6.9 mph - N/A   Partly Cloudy
4:55 PM 72.3 °F 66.7 °F 83% 30.11 in 10.0 mi ENE 5.8 mph - N/A   Mostly Cloudy
5:55 PM 71.4 °F 66.4 °F 84% 30.11 in 10.0 mi NE 5.8 mph - N/A   Mostly Cloudy
6:55 PM 69.1 °F 65.5 °F 88% 30.13 in 10.0 mi NNE 3.5 mph - N/A   Clear
7:55 PM 67.8 °F 65.8 °F 93% 30.14 in 10.0 mi East 4.6 mph - N/A   Clear
8:55 PM 66.7 °F 65.1 °F 95% 30.15 in 10.0 mi NE 3.5 mph - N/A   Clear
9:55 PM 66.6 °F 65.1 °F 95% 30.14 in 10.0 mi Calm Calm - N/A   Clear
10:49 PM 64.4 °F 62.6 °F 94% 30.14 in 1.2 mi Calm Calm - N/A   Clear
10:55 PM 64.8 °F 63.1 °F 94% 30.13 in 1.2 mi Calm Calm - N/A   Clear
10:59 PM 64.4 °F 62.6 °F 94% 30.14 in 4.0 mi WNW 3.5 mph - N/A   Clear
11:32 PM 64.4 °F 62.6 °F 94% 30.12 in 10.0 mi WNW 3.5 mph - N/A   Clear
11:55 PM 64.4 °F 63.0 °F 95% 30.12 in 10.0 mi NW 4.6 mph - N/A   Clear